Location: Unspecified
(0.0000°N, 0.0000°E)
Time: 11:52:01
(UTC+00:00)

S-56A Canister/Altair - Pass Details

Date: 03 December 2023
Orbit: 640 x 2488 km, 38.9° (Epoch: 24 February)

Event Time Altitude Azimuth Distance (km) Brightness Sun altitude
Rises 22:59:43 0° 268° (W) 5,235 12.0 -64.7°
Reaches altitude 10° 23:04:13 10° 253° (WSW) 4,529 11.6 -65.2°
Maximum altitude 23:13:05 21° 209° (SSW) 4,094 11.3 -66.1°
Drops below altitude 10° 23:23:08 10° 166° (SSE) 5,148 11.9 -66.9°
Sets 23:28:56 0° 152° (SSE) 6,139 12.4 -67.3°
